Theta_e
311 312 311 311 312 311 311 311 312 310 311 311 311 310 310 312 311 306 300 303 309 316 315 311 315 317 318 314 312 298 289 286 288 289 293 297 302 309 313 312 311 311 313 323 328
311 311 311 311 311 310 311 310 312 311 312 312 311 309 309 310 304 300 307 312 315 316 309 305 309 312 310 309 307 296 288 289 292 293 293 294 305 310 310 310 310 313 322 326 327
311 311 311 311 310 310 310 311 310 311 311 311 310 307 308 308 297 298 311 312 314 313 310 307 305 310 305 306 304 298 292 293 295 295 297 296 304 311 311 305 310 312 320 323 324
310 310 310 310 310 310 309 310 310 310 311 310 309 307 307 303 285 302 310 309 308 308 306 304 302 304 301 298 303 295 294 295 297 299 296 297 307 309 312 310 315 319 323 323 322
310 310 309 309 309 309 309 310 310 310 311 310 309 308 303 293 293 307 309 307 305 304 301 301 299 303 298 299 302 293 296 297 297 298 296 303 306 308 309 312 318 321 322 321 322
309 308 308 308 309 309 309 309 309 310 310 310 310 309 300 289 304 307 304 302 302 301 300 303 299 303 300 300 301 297 297 294 297 296 296 300 305 309 310 316 316 319 319 320 321
309 308 308 308 309 309 309 310 309 309 308 309 310 305 297 294 304 304 303 300 301 301 299 303 303 300 302 299 303 296 293 293 293 294 294 304 301 305 312 316 314 317 318 319 321
308 308 308 308 308 309 309 309 309 309 307 308 308 302 291 305 303 302 302 300 302 303 302 305 305 300 303 301 296 290 291 287 292 294 295 298 294 305 314 314 312 313 316 318 321
308 307 307 308 308 308 308 307 308 307 307 307 301 296 288 306 298 301 301 298 299 300 302 306 303 300 299 295 288 286 285 284 288 293 295 295 293 310 315 313 312 312 314 317 318
308 307 307 307 306 307 305 305 305 301 300 303 303 288 294 290 297 300 302 301 297 297 299 299 297 297 295 292 283 284 284 284 285 290 293 292 296 310 313 313 312 312 313 315 317
307 307 307 306 306 304 298 295 288 288 290 287 289 289 291 294 300 299 301 298 296 296 289 293 291 290 294 293 291 287 286 285 285 291 291 292 302 307 312 312 312 313 312 312 316
307 307 306 306 303 301 294 290 290 291 283 291 292 292 294 297 290 295 300 290 291 290 293 288 288 295 298 292 289 286 285 283 289 292 291 291 298 306 309 311 312 312 311 312 312
306 306 306 304 302 295 290 289 296 296 282 286 290 291 291 294 289 288 296 292 290 292 291 288 291 295 294 288 286 283 286 284 287 290 291 291 289 296 306 310 312 313 312 311 312
306 306 304 302 292 291 288 294 297 295 276 281 284 289 291 291 287 298 298 292 292 289 292 292 292 292 288 287 288 282 288 290 289 287 281 286 280 286 297 304 308 310 310 311 311
307 306 304 299 288 287 291 294 297 287 267 282 284 293 291 289 292 294 300 295 291 292 291 288 289 288 285 285 288 285 290 290 289 285 285 283 280 282 294 297 305 308 309 311 312
307 306 301 292 290 290 293 294 287 271 265 277 284 283 284 288 290 295 296 298 298 293 293 290 293 291 288 290 289 290 289 289 287 286 280 282 280 280 289 298 300 307 310 311 312
307 305 296 294 286 292 292 284 271 264 279 276 278 282 282 282 285 290 288 286 285 284 285 289 290 292 292 287 290 289 288 280 279 279 278 280 281 282 287 297 302 306 309 312 313
305 299 294 293 292 293 286 276 266 273 274 281 280 280 276 280 284 285 283 280 285 284 283 277 279 289 292 287 285 285 284 280 272 273 276 279 278 284 287 293 301 306 310 313 313
299 289 288 291 292 289 281 269 269 273 277 277 278 274 275 277 281 282 281 280 283 285 279 280 282 291 290 289 288 284 281 284 278 275 276 277 280 285 289 290 291 295 302 306 311
287 283 285 290 289 285 276 274 276 279 279 279 270 272 268 271 275 273 278 283 282 286 287 285 280 288 289 290 289 286 287 280 279 272 273 274 275 280 285 286 288 286 286 289 295
282 279 286 289 287 279 268 274 278 281 280 277 274 271 269 268 266 268 274 283 285 285 288 286 284 282 287 284 283 284 282 283 282 279 274 272 276 283 285 284 284 284 285 285 286
281 277 286 286 275 270 269 277 281 279 280 278 277 277 273 275 271 270 272 278 286 285 284 288 284 280 281 287 288 285 282 282 279 278 278 277 277 283 283 283 284 283 283 284 285
277 277 285 283 269 265 276 277 279 277 277 276 275 277 278 275 272 275 278 283 283 284 285 287 282 276 279 286 286 284 285 285 283 282 278 276 278 282 282 281 282 281 282 282 283
277 273 277 279 276 272 271 273 275 280 277 278 276 278 276 274 276 274 275 281 282 283 288 288 285 281 277 281 284 282 284 284 283 278 278 279 278 278 280 280 279 280 281 281 281
278 270 270 269 271 264 268 266 268 269 277 278 275 275 274 269 273 273 275 276 281 282 281 281 277 282 282 286 285 284 284 284 282 281 279 280 281 279 278 278 278 279 279 279 279
277 274 272 263 263 266 269 264 267 271 272 270 269 273 272 265 270 267 272 275 274 277 276 278 275 281 281 285 283 283 282 283 284 283 281 281 278 277 277 279 277 277 277 276 277
282 282 277 273 263 266 266 269 271 276 275 279 275 270 271 274 275 275 276 276 277 276 274 270 270 274 273 283 281 278 279 278 278 275 279 280 280 276 276 277 275 275 276 275 275
Wind_Speed
17 18 18 20 19 20 20 18 19 19 20 20 13 9 14 13 10 3 10 6 8 13 7 8 5 11 12 9 5 4 4 7 10 11 8 6 6 2 1 10 2 1 4 15 17
18 18 19 18 20 21 20 21 20 19 21 22 14 8 9 6 5 9 4 8 15 10 6 7 14 16 9 9 6 6 5 10 6 8 8 5 9 11 6 5 5 8 13 18 18
19 19 19 20 20 22 20 21 22 19 19 16 10 1 3 3 1 2 9 4 11 2 5 5 5 15 14 7 8 8 10 5 6 8 8 8 4 4 18 4 7 21 24 21 19
19 19 19 20 20 21 22 20 20 19 18 12 3 8 5 2 2 4 9 4 2 5 6 9 5 17 15 14 11 9 3 6 5 8 6 9 10 5 17 6 12 26 29 23 22
20 20 20 20 21 22 22 21 19 16 17 11 9 13 3 5 3 10 10 5 2 8 10 15 11 12 20 12 13 5 6 2 2 8 3 9 7 8 2 5 18 19 21 21 18
19 20 21 21 22 22 21 20 18 16 12 11 9 11 1 2 3 6 9 4 4 7 12 11 8 11 19 14 18 8 7 1 3 5 6 7 4 6 2 13 19 22 19 18 20
21 21 21 21 22 22 21 20 18 14 8 6 9 7 2 3 4 6 7 4 3 7 10 12 18 4 12 12 9 8 7 3 1 2 4 9 4 6 7 16 20 18 15 15 17
21 20 20 20 21 21 20 20 18 9 5 3 4 2 3 2 4 3 4 1 5 5 4 10 10 8 4 10 7 7 6 5 4 4 3 5 5 2 8 23 19 16 14 13 16
21 20 19 19 19 19 19 18 9 6 4 2 2 2 2 8 2 4 4 2 2 2 5 9 6 9 4 19 8 2 15 7 3 2 4 4 3 8 8 14 19 14 15 13 13
20 18 17 18 17 16 19 11 7 4 5 1 2 1 4 5 4 5 5 3 4 9 10 9 9 4 10 20 18 16 14 4 7 5 6 6 4 13 10 15 20 15 14 14 14
19 17 17 16 12 13 8 4 6 6 8 1 5 3 5 12 2 3 5 5 4 8 4 9 6 11 27 23 19 9 13 13 1 3 8 6 9 15 11 8 14 12 12 12 15
18 17 18 15 6 14 4 6 3 4 4 1 6 6 12 11 4 4 4 5 6 10 17 5 10 15 24 13 14 8 16 4 5 4 8 3 6 13 16 18 18 22 14 14 8
17 17 18 13 5 6 6 4 5 1 1 6 5 6 11 11 3 5 4 5 6 15 16 5 11 9 18 15 15 4 19 6 9 6 7 8 4 2 7 4 8 9 6 7 12
15 14 20 9 4 2 3 7 5 3 5 14 12 4 9 9 5 7 3 3 2 18 19 8 2 15 15 8 14 8 7 10 10 7 7 3 4 4 4 6 11 12 10 13 12
15 16 13 8 2 3 3 6 3 4 6 20 11 8 18 6 9 10 4 6 11 16 9 2 11 12 8 5 7 6 6 8 5 6 7 3 6 6 5 8 13 15 13 13 14
15 15 12 4 3 3 5 4 4 9 6 11 8 15 15 14 10 3 5 9 3 18 11 6 3 5 3 5 5 8 9 9 6 4 1 4 5 5 7 13 7 12 14 15 14
12 10 7 3 5 7 1 5 9 9 9 13 11 16 12 11 15 13 11 14 9 12 11 10 6 5 5 10 7 7 15 4 4 2 4 3 3 8 5 9 15 18 17 17 16
7 7 6 5 5 2 3 9 14 4 5 6 7 14 9 14 15 18 12 11 13 10 9 5 6 5 5 5 8 2 5 7 7 5 5 3 7 6 5 5 2 9 15 14 15
4 4 5 15 10 2 9 8 3 3 6 9 9 8 10 8 6 8 11 9 9 12 6 6 2 3 3 2 2 4 2 3 9 3 4 3 5 4 7 9 12 9 2 5 10
4 4 7 14 9 8 8 9 3 5 6 4 7 6 9 13 10 8 11 7 10 7 6 3 6 4 3 3 3 5 6 4 3 7 5 3 4 5 4 7 11 13 12 12 12
6 6 5 15 6 9 7 6 4 6 6 7 5 6 4 5 4 6 5 2 9 9 8 4 2 2 3 2 3 3 1 4 6 5 7 4 7 1 1 4 6 8 10 11 11
4 7 5 7 9 4 4 4 5 8 7 5 4 5 3 4 6 5 4 3 10 6 5 4 2 4 3 4 1 2 2 4 6 4 1 4 6 3 5 5 5 7 9 10 10
5 1 6 6 7 4 3 4 5 10 8 7 7 5 3 5 5 5 4 4 8 7 4 7 3 4 7 7 1 3 3 4 4 3 6 7 6 3 5 6 7 8 9 9 11
5 6 6 8 3 5 3 4 3 4 3 4 5 4 3 6 5 4 8 3 6 7 8 5 1 2 6 6 3 4 4 4 4 4 5 5 5 6 3 4 5 6 8 8 9
6 1 3 5 6 4 4 1 3 6 5 6 4 7 1 4 4 5 4 6 3 12 7 4 3 1 2 2 3 2 4 6 5 3 4 2 7 7 5 5 4 5 6 8 10
5 4 4 1 2 4 5 3 3 5 3 6 4 4 5 4 4 4 3 4 1 8 7 8 2 2 1 3 5 3 3 3 5 3 4 6 3 5 4 5 6 5 6 7 8
1 2 5 4 4 4 3 1 2 2 3 1 2 2 3 1 3 5 5 3 1 4 5 5 4 3 4 2 4 6 5 1 3 0 4 7 3 11 6 7 4 4 5 6 7
Wind_Direction
327 328 326 324 329 323 326 322 320 321 316 306 308 300 315 289 261 189 225 218 207 237 290 313 243 193 180 190 142 119 115 187 177 163 188 170 124 36 84 120 66 72 148 139 140
329 327 322 323 318 328 324 320 317 322 315 302 300 263 271 288 197 209 236 235 224 204 166 209 214 183 187 175 185 160 168 188 182 162 176 191 142 143 115 123 45 82 95 125 133
326 324 324 324 325 323 325 322 317 316 306 320 329 171 322 140 81 207 212 334 246 156 163 175 320 183 181 161 188 178 205 190 200 165 146 155 113 135 141 218 197 150 145 144 139
322 324 323 321 323 322 320 323 319 312 307 322 106 81 23 166 180 151 84 73 143 118 171 171 253 193 180 184 187 140 176 181 160 164 144 158 133 115 165 217 152 158 153 149 150
326 322 321 322 320 320 320 322 319 313 317 318 170 130 209 71 225 159 150 173 272 166 209 183 207 185 193 181 176 136 158 199 85 150 135 129 158 169 4 101 129 141 145 148 148
329 324 322 321 319 319 320 322 322 317 324 329 176 164 295 50 136 145 128 161 218 202 200 189 189 248 194 173 184 147 131 142 215 97 135 131 128 107 264 138 135 151 153 154 152
328 327 325 324 319 321 322 323 319 312 318 355 141 171 174 269 159 154 148 145 165 203 193 185 225 297 136 143 182 135 110 17 86 140 110 119 39 173 145 146 143 155 148 150 153
331 328 329 325 322 323 324 322 317 313 301 337 139 163 252 71 106 157 165 203 166 233 248 166 160 286 216 131 137 109 79 114 284 132 64 91 208 88 155 142 154 158 157 156 160
335 333 334 326 331 328 323 326 332 335 280 244 99 160 305 112 217 212 163 200 164 175 257 127 78 234 129 144 128 100 175 147 183 177 115 93 162 157 161 163 153 160 161 161 154
340 340 341 337 337 334 328 320 310 29 7 139 233 77 177 277 201 147 168 133 243 167 158 155 220 181 157 159 170 170 166 118 157 175 54 88 116 158 161 167 163 161 167 166 165
342 347 349 346 345 356 347 7 21 6 49 162 281 223 275 316 45 108 92 163 236 209 149 114 203 161 164 173 159 134 160 157 33 203 100 135 144 167 167 144 167 173 171 174 174
343 344 355 349 61 20 36 65 58 187 331 280 277 264 5 20 319 285 175 200 209 140 120 145 203 177 165 145 126 105 135 123 40 76 87 94 158 169 174 187 181 177 181 180 170
343 350 353 348 100 36 38 17 322 85 23 326 6 2 343 340 301 265 208 196 146 132 138 156 165 155 145 127 123 125 157 147 141 119 46 102 9 144 200 166 189 200 195 180 182
346 353 356 358 40 330 40 319 330 74 65 7 357 354 311 301 250 227 174 192 93 133 147 119 196 137 130 133 135 129 161 122 135 110 154 45 212 271 187 193 201 192 188 190 188
348 0 10 26 150 46 317 311 339 45 50 335 318 283 304 286 311 20 205 180 116 136 146 69 125 123 81 143 123 161 148 124 113 88 103 352 83 260 144 204 206 206 200 201 198
342 4 17 18 34 94 330 354 42 40 7 334 318 335 350 13 17 5 101 40 162 96 70 69 99 79 120 71 83 146 91 56 55 74 66 183 122 249 194 207 193 207 205 202 198
340 8 24 66 314 320 93 62 45 62 327 331 337 332 341 355 19 49 58 45 70 94 101 65 14 9 72 69 19 111 137 86 43 39 195 319 133 228 227 220 194 197 201 201 197
335 24 351 76 327 93 53 53 65 275 312 319 323 321 34 1 27 33 59 31 11 31 87 111 106 358 350 97 157 141 139 138 144 196 196 100 210 238 267 281 269 215 198 194 195
58 4 32 344 355 81 66 57 78 316 293 319 318 17 348 3 38 40 43 27 21 11 77 97 52 331 58 105 125 194 109 161 101 15 72 213 276 307 25 32 8 355 84 211 201
79 59 9 346 334 49 63 89 74 5 322 3 36 42 1 343 32 41 21 344 345 16 338 353 84 358 327 53 17 130 156 85 11 133 186 271 272 223 18 347 356 11 14 2 11
53 52 309 343 42 51 77 67 35 355 12 36 17 9 354 15 52 19 3 358 2 337 333 353 97 285 43 15 148 65 122 72 112 126 159 148 254 106 22 16 359 10 21 16 15
70 45 340 351 59 32 41 15 16 340 2 27 88 36 40 360 30 54 61 5 353 326 350 360 2 101 178 215 241 132 177 123 146 212 99 155 257 51 94 67 52 37 27 27 23
80 305 338 35 68 9 34 44 54 9 3 9 23 26 355 23 67 56 354 14 360 2 359 344 315 75 2 338 122 218 203 131 113 76 189 133 253 113 101 74 47 46 29 29 26
71 26 352 43 65 99 38 14 28 12 50 354 18 6 24 27 16 33 350 340 331 355 330 310 40 83 194 262 15 160 164 161 137 136 181 211 168 196 133 88 42 39 31 29 31
29 302 197 341 3 64 80 7 3 9 355 12 32 21 335 67 5 25 9 324 311 358 357 59 98 261 177 349 352 305 173 179 174 179 169 237 184 161 146 127 81 47 35 33 25
95 104 6 81 355 56 12 344 29 319 55 341 80 315 17 120 163 195 23 26 6 328 3 336 178 348 155 25 27 263 257 300 181 143 87 129 188 137 125 110 87 54 42 30 16
337 72 106 324 5 55 267 220 285 38 300 269 282 41 19 201 225 239 222 243 260 335 329 18 6 33 255 13 48 307 254 192 77 336 130 188 161 159 154 145 124 81 45 26 7